Mandan, ND

11:45 AM MDT on September 25, 2016 (GMT -0600)
Mandan

Weather History for KY19 - September, 2012

Change the Weather History Date:

Saturday, September 8, 2012

  Actual Average (KBIS) Record (KBIS)
Temperature  
Mean Temperature 60 °F 62 °F  
Max Temperature 71 °F 76 °F 105 °F (1959)
Min Temperature 44 °F 48 °F 29 °F (1895)
Degree Days  
Heating Degree Days 6 5  
Month to date heating degree days 32  
Since 1 July heating degree days 87  
Cooling Degree Days 0 2  
Month to date cooling degree days 20  
Year to date cooling degree days 501  
Growing Degree Days 10 (Base 50)    
Moisture  
Dew Point 35 °F    
Average Humidity 45    
Maximum Humidity 71    
Minimum Humidity 19    
Precipitation  
Precipitation 0.00 in 0.05 in 1.38 in (2007)
Month to date precipitation 0.48  
Year to date precipitation 14.29  
Snow  
Snow 0.00 in 0.00 in 0.00 in (2002)
Month to date snowfall 0.0  
Since 1 July snowfall 0.0  
Since 1 September snowfall 0.0  
Snow Depth -    
Sea Level Pressure  
Sea Level Pressure 30.16 in    
Wind  
Wind Speed 12 mph (NNW)    
Max Wind Speed 22 mph    
Max Gust Speed 28 mph    
Visibility 10 miles    
Events      
T = Trace of Precipitation, MM = Missing Value Source: NWS Daily Summary

Daily Weather History Graph

Daily Weather History Graph

Search for Another Location

Airport or City:

Trip Planner

Search our weather history database for the weather conditions in past years. The results will help you decide how hot, cold, wet, or windy it might be!

Date:

Astronomy

Sep. 08, 2012 Rise Set
Actual Time 7:13 AM CDT 8:08 PM CDT
Civil Twilight 6:42 AM CDT 8:38 PM CDT
Nautical Twilight 6:05 AM CDT 9:15 PM CDT
Astronomical Twilight 5:26 AM CDT 9:54 PM CDT
Moon No Moon Rise 3:23 PM CDT (9/8)
Length of Visible Light 13h 56m
Length of Day
12h 55m
Waning Gibbous, 48% of the Moon is Illuminated
Sep 8
Waning Gibbous
Sep 15
New
Sep 22
First Quarter
Sep 29
Full
Oct 8
Last Quarter

Hourly Weather History & Observations

Time (CDT) Temp. Dew Point Humidity Pressure Visibility Wind Dir Wind Speed Gust Speed Precip Events Conditions
12:15 AM 50.0 °F 39.2 °F 66% 30.15 in 10.0 mi SW 10.4 mph - N/A   Clear
12:35 AM 50.0 °F 39.2 °F 66% 30.15 in 10.0 mi SW 10.4 mph - N/A   Clear
12:55 AM 50.0 °F 39.2 °F 66% 30.14 in 10.0 mi SW 10.4 mph - N/A   Clear
1:15 AM 50.0 °F 39.2 °F 66% 30.14 in 10.0 mi WSW 10.4 mph - N/A   Clear
1:35 AM 50.0 °F 39.2 °F 66% 30.13 in 10.0 mi SW 9.2 mph - N/A   Clear
1:55 AM 50.0 °F 39.2 °F 66% 30.13 in 10.0 mi SW 9.2 mph - N/A   Clear
2:15 AM 48.2 °F 39.2 °F 71% 30.12 in 10.0 mi SW 10.4 mph - N/A   Clear
2:35 AM 50.0 °F 39.2 °F 66% 30.12 in 10.0 mi SW 10.4 mph - N/A   Clear
2:55 AM 51.8 °F 37.4 °F 58% 30.11 in 10.0 mi WSW 10.4 mph - N/A   Clear
3:15 AM 51.8 °F 37.4 °F 58% 30.11 in 10.0 mi WSW 11.5 mph - N/A   Clear
3:35 AM 50.0 °F 37.4 °F 62% 30.11 in 10.0 mi WSW 11.5 mph - N/A   Clear
3:55 AM 50.0 °F 37.4 °F 62% 30.10 in 10.0 mi West 13.8 mph - N/A   Clear
4:15 AM 53.6 °F 35.6 °F 51% 30.09 in 10.0 mi West 13.8 mph - N/A   Clear
4:35 AM 53.6 °F 35.6 °F 51% 30.09 in 10.0 mi West 13.8 mph - N/A   Clear
4:55 AM 53.6 °F 35.6 °F 51% 30.09 in 10.0 mi West 12.7 mph - N/A   Clear
5:15 AM 53.6 °F 35.6 °F 51% 30.08 in 10.0 mi West 12.7 mph - N/A   Clear
5:35 AM 50.0 °F 37.4 °F 62% 30.08 in 10.0 mi West 12.7 mph - N/A   Scattered Clouds
5:55 AM 50.0 °F 37.4 °F 62% 30.08 in 10.0 mi West 12.7 mph 18.4 mph N/A   Partly Cloudy
6:15 AM 51.8 °F 37.4 °F 58% 30.07 in 10.0 mi West 15.0 mph 18.4 mph N/A   Clear
6:35 AM 53.6 °F 37.4 °F 54% 30.07 in 10.0 mi West 15.0 mph - N/A   Clear
6:55 AM 53.6 °F 37.4 °F 54% 30.07 in 10.0 mi West 13.8 mph - N/A   Clear
7:15 AM 53.6 °F 37.4 °F 54% 30.07 in 10.0 mi West 15.0 mph - N/A   Clear
7:35 AM 53.6 °F 37.4 °F 54% 30.08 in 10.0 mi WNW 15.0 mph - N/A   Clear
7:55 AM 53.6 °F 37.4 °F 54% 30.09 in 10.0 mi NW 9.2 mph - N/A   Clear
8:15 AM 55.4 °F 37.4 °F 51% 30.11 in 10.0 mi NW 11.5 mph 18.4 mph N/A   Clear
8:35 AM 57.2 °F 39.2 °F 51% 30.11 in 10.0 mi NNW 15.0 mph 19.6 mph N/A   Clear
8:55 AM 59.0 °F 41.0 °F 51% 30.11 in 10.0 mi NNW 21.9 mph 25.3 mph N/A   Clear
9:15 AM 59.0 °F 42.8 °F 55% 30.12 in 10.0 mi North 19.6 mph 25.3 mph N/A   Clear
9:35 AM 59.0 °F 44.6 °F 59% 30.13 in 10.0 mi NNW 19.6 mph 25.3 mph N/A   Clear
9:55 AM 59.0 °F 44.6 °F 59% 30.14 in 10.0 mi North 17.3 mph 27.6 mph N/A   Clear
10:15 AM 60.8 °F 46.4 °F 59% 30.15 in 10.0 mi North 20.7 mph 26.5 mph N/A   Clear
10:35 AM 62.6 °F 46.4 °F 55% 30.16 in 10.0 mi North 16.1 mph 25.3 mph N/A   Clear
10:55 AM 62.6 °F 46.4 °F 55% 30.17 in 10.0 mi North 19.6 mph 26.5 mph N/A   Clear
11:15 AM 62.6 °F 44.6 °F 52% 30.18 in 10.0 mi North 18.4 mph 23.0 mph N/A   Clear
11:35 AM 62.6 °F 42.8 °F 48% 30.19 in 10.0 mi North 16.1 mph 23.0 mph N/A   Clear
11:55 AM 64.4 °F 39.2 °F 40% 30.19 in 10.0 mi North 18.4 mph 23.0 mph N/A   Clear
12:15 PM 64.4 °F 39.2 °F 40% 30.20 in 10.0 mi North 12.7 mph 23.0 mph N/A   Clear
12:35 PM 64.4 °F 37.4 °F 37% 30.20 in 10.0 mi North 16.1 mph 23.0 mph N/A   Clear
12:55 PM 66.2 °F 39.2 °F 37% 30.20 in 10.0 mi North 17.3 mph 23.0 mph N/A   Clear
1:15 PM 66.2 °F 35.6 °F 32% 30.19 in 10.0 mi North 17.3 mph 23.0 mph N/A   Clear
1:35 PM 68.0 °F 33.8 °F 28% 30.20 in 10.0 mi North 17.3 mph 23.0 mph N/A   Clear
1:55 PM 68.0 °F 35.6 °F 30% 30.20 in 10.0 mi North 16.1 mph 25.3 mph N/A   Clear
2:15 PM 68.0 °F 32.0 °F 26% 30.20 in 10.0 mi North 17.3 mph 21.9 mph N/A   Clear
2:35 PM 68.0 °F 32.0 °F 26% 30.20 in 10.0 mi North 18.4 mph 25.3 mph N/A   Clear
3:15 PM 69.8 °F 28.4 °F 21% 30.20 in 10.0 mi North 18.4 mph - N/A   Clear
3:35 PM 69.8 °F 28.4 °F 21% 30.20 in 10.0 mi North 16.1 mph 21.9 mph N/A   Clear
3:55 PM 71.6 °F 26.6 °F 19% 30.20 in 10.0 mi North 15.0 mph 23.0 mph N/A   Clear
4:15 PM 71.6 °F 28.4 °F 20% 30.19 in 10.0 mi North 17.3 mph 20.7 mph N/A   Clear
4:35 PM 71.6 °F 28.4 °F 20% 30.19 in 10.0 mi North 19.6 mph 24.2 mph N/A   Clear
4:55 PM 69.8 °F 26.6 °F 20% 30.19 in 10.0 mi NNE 17.3 mph - N/A   Clear
5:15 PM 69.8 °F 26.6 °F 20% 30.19 in 10.0 mi NNE 17.3 mph 21.9 mph N/A   Clear
5:35 PM 69.8 °F 26.6 °F 20% 30.19 in 10.0 mi NNE 15.0 mph 21.9 mph N/A   Clear
5:55 PM 69.8 °F 28.4 °F 21% 30.19 in 10.0 mi North 12.7 mph 19.6 mph N/A   Clear
6:15 PM 68.0 °F 28.4 °F 23% 30.19 in 10.0 mi North 12.7 mph - N/A   Clear
6:35 PM 68.0 °F 28.4 °F 23% 30.19 in 10.0 mi North 9.2 mph 19.6 mph N/A   Clear
6:55 PM 68.0 °F 28.4 °F 23% 30.19 in 10.0 mi North 12.7 mph - N/A   Clear
7:15 PM 66.2 °F 28.4 °F 24% 30.19 in 10.0 mi North 12.7 mph - N/A   Clear
7:35 PM 64.4 °F 30.2 °F 28% 30.19 in 10.0 mi North 5.8 mph - N/A   Clear
7:55 PM 60.8 °F 32.0 °F 34% 30.20 in 10.0 mi North 6.9 mph - N/A   Clear
8:15 PM 59.0 °F 32.0 °F 36% 30.20 in 10.0 mi NNE 6.9 mph - N/A   Clear
8:35 PM 59.0 °F 32.0 °F 36% 30.20 in 10.0 mi North 6.9 mph - N/A   Clear
8:55 PM 55.4 °F 32.0 °F 41% 30.21 in 10.0 mi North 3.5 mph - N/A   Clear
9:15 PM 55.4 °F 32.0 °F 41% 30.21 in 10.0 mi Calm Calm - N/A   Clear
9:35 PM 53.6 °F 32.0 °F 44% 30.22 in 10.0 mi NNW 3.5 mph - N/A   Clear
10:15 PM 50.0 °F 32.0 °F 50% 30.22 in 10.0 mi Calm Calm - N/A   Clear
10:35 PM 50.0 °F 32.0 °F 50% 30.22 in 10.0 mi NNW 3.5 mph - N/A   Clear
10:55 PM 55.4 °F 30.2 °F 38% 30.22 in 10.0 mi NNE 4.6 mph - N/A   Clear
11:15 PM 55.4 °F 32.0 °F 41% 30.22 in 10.0 mi NE 3.5 mph - N/A   Clear
11:55 PM 44.6 °F 32.0 °F 61% 30.23 in 10.0 mi Calm Calm - N/A   Clear